Time,TemperatureF,DewpointF,PressureIn,WindDirection,WindDirectionDegrees,WindSpeedMPH,WindSpeedGustMPH,Humidity,HourlyPrecipIn,Conditions,Clouds,dailyrainin,SoftwareType,DateUTC
2013-02-10 00:14:00,42.3,31.0,30.25,East,99,0.0,0.0,65,0.00,,,0.00,weatherlink.com 1.10,2013-02-10 05:14:00,
2013-02-10 00:28:00,42.6,31.0,30.25,NNW,337,0.0,2.0,63,0.00,,,0.00,weatherlink.com 1.10,2013-02-10 05:28:00,
2013-02-10 00:43:00,43.1,29.0,30.25,NNW,338,0.0,1.0,59,0.00,,,0.00,weatherlink.com 1.10,2013-02-10 05:43:00,
2013-02-10 00:58:00,43.2,29.0,30.25,North,355,0.0,2.0,58,0.00,,,0.00,weatherlink.com 1.10,2013-02-10 05:58:00,
2013-02-10 01:13:00,42.6,30.0,30.25,ESE,103,0.0,0.0,62,0.00,,,0.00,weatherlink.com 1.10,2013-02-10 06:13:00,
2013-02-10 01:28:00,42.0,31.0,30.25,North,7,0.0,1.0,65,0.00,,,0.00,weatherlink.com 1.10,2013-02-10 06:28:00,
2013-02-10 01:43:00,41.9,31.0,30.25,North,7,0.0,0.0,66,0.00,,,0.00,weatherlink.com 1.10,2013-02-10 06:43:00,
2013-02-10 01:58:00,41.3,31.0,30.23,North,7,0.0,1.0,67,0.00,,,0.00,weatherlink.com 1.10,2013-02-10 06:58:00,
2013-02-10 02:13:00,40.9,31.0,30.26,North,8,0.0,0.0,67,0.00,,,0.00,weatherlink.com 1.10,2013-02-10 07:13:00,
2013-02-10 02:28:00,41.3,31.0,30.25,North,8,0.0,0.0,66,0.00,,,0.00,weatherlink.com 1.10,2013-02-10 07:28:00,
2013-02-10 02:43:00,41.3,32.0,30.26,North,8,0.0,0.0,69,0.00,,,0.00,weatherlink.com 1.10,2013-02-10 07:43:00,
2013-02-10 02:58:00,41.4,32.0,30.25,NW,309,0.0,0.0,70,0.00,,,0.00,weatherlink.com 1.10,2013-02-10 07:58:00,
2013-02-10 03:13:00,41.4,32.0,30.25,NW,309,0.0,0.0,70,0.00,,,0.00,weatherlink.com 1.10,2013-02-10 08:13:00,
2013-02-10 03:28:00,41.1,32.0,30.24,NW,309,0.0,0.0,71,0.00,,,0.00,weatherlink.com 1.10,2013-02-10 08:28:00,
2013-02-10 03:43:00,41.7,32.0,30.25,East,92,0.0,1.0,69,0.00,,,0.00,weatherlink.com 1.10,2013-02-10 08:43:00,
2013-02-10 03:58:00,42.2,33.0,30.24,ESE,111,0.0,1.0,69,0.00,,,0.00,weatherlink.com 1.10,2013-02-10 08:58:00,
2013-02-10 04:13:00,42.8,32.0,30.24,SE,129,0.0,1.0,67,0.00,,,0.00,weatherlink.com 1.10,2013-02-10 09:13:00,
2013-02-10 04:28:00,43.1,33.0,30.24,SE,129,0.0,1.0,67,0.00,,,0.00,weatherlink.com 1.10,2013-02-10 09:28:00,
2013-02-10 04:43:00,43.7,33.0,30.23,WSW,247,0.0,1.0,66,0.00,,,0.00,weatherlink.com 1.10,2013-02-10 09:43:00,
2013-02-10 05:00:00,44.3,33.0,30.24,WSW,247,0.0,0.0,65,0.00,,,0.00,weatherlink.com 1.10,2013-02-10 10:00:00,
2013-02-10 05:13:00,44.9,32.0,30.24,West,271,0.0,1.0,60,0.00,,,0.00,weatherlink.com 1.10,2013-02-10 10:13:00,
2013-02-10 05:28:00,45.1,33.0,30.24,West,271,0.0,1.0,62,0.00,,,0.00,weatherlink.com 1.10,2013-02-10 10:28:00,
2013-02-10 05:43:00,46.3,32.0,30.25,West,278,0.0,1.0,57,0.00,,,0.00,weatherlink.com 1.10,2013-02-10 10:43:00,
2013-02-10 05:58:00,46.8,32.0,30.24,SE,146,0.0,1.0,56,0.00,,,0.00,weatherlink.com 1.10,2013-02-10 10:58:00,
2013-02-10 06:13:00,47.5,31.0,30.25,ESE,113,0.0,2.0,54,0.00,,,0.00,weatherlink.com 1.10,2013-02-10 11:13:00,
2013-02-10 06:28:00,47.6,31.0,30.25,WNW,282,0.0,3.0,53,0.00,,,0.00,weatherlink.com 1.10,2013-02-10 11:28:00,
2013-02-10 06:44:00,47.1,31.0,30.25,West,271,0.0,2.0,54,0.00,,,0.00,weatherlink.com 1.10,2013-02-10 11:44:00,
2013-02-10 06:59:00,46.0,33.0,30.24,West,272,0.0,0.0,60,0.00,,,0.00,weatherlink.com 1.10,2013-02-10 11:59:00,
2013-02-10 07:14:00,44.4,33.0,30.22,West,272,0.0,0.0,64,0.00,,,0.00,weatherlink.com 1.10,2013-02-10 12:14:00,
2013-02-10 07:29:00,43.2,32.0,30.24,West,272,0.0,0.0,65,0.00,,,0.00,weatherlink.com 1.10,2013-02-10 12:29:00,
2013-02-10 07:44:00,42.6,33.0,30.25,West,279,0.0,0.0,68,0.00,,,0.00,weatherlink.com 1.10,2013-02-10 12:44:00,
2013-02-10 07:59:00,41.8,32.0,30.25,West,279,0.0,1.0,68,0.00,,,0.00,weatherlink.com 1.10,2013-02-10 12:59:00,
2013-02-10 08:14:00,42.3,33.0,30.26,SSW,207,2.0,2.0,70,0.00,,,0.00,weatherlink.com 1.10,2013-02-10 13:14:00,
2013-02-10 08:29:00,44.4,32.0,30.26,West,275,0.0,1.0,63,0.00,,,0.00,weatherlink.com 1.10,2013-02-10 13:29:00,
2013-02-10 08:44:00,46.0,32.0,30.25,WNW,286,0.0,1.0,59,0.00,,,0.00,weatherlink.com 1.10,2013-02-10 13:44:00,
2013-02-10 08:59:00,47.1,32.0,30.25,SE,133,6.0,6.0,56,0.00,,,0.00,weatherlink.com 1.10,2013-02-10 13:59:00,
2013-02-10 09:14:00,47.9,31.0,30.25,SE,136,0.0,2.0,53,0.00,,,0.00,weatherlink.com 1.10,2013-02-10 14:14:00,
2013-02-10 09:29:00,49.6,31.0,30.25,SSE,158,0.0,7.0,50,0.00,,,0.00,weatherlink.com 1.10,2013-02-10 14:29:00,
2013-02-10 09:44:00,51.2,31.0,30.25,SSW,200,1.0,6.0,47,0.00,,,0.00,weatherlink.com 1.10,2013-02-10 14:44:00,
2013-02-10 09:59:00,51.6,31.0,30.25,SE,127,0.0,5.0,46,0.00,,,0.00,weatherlink.com 1.10,2013-02-10 14:59:00,
2013-02-10 10:14:00,53.2,31.0,30.23,SSE,167,4.0,7.0,43,0.00,,,0.00,weatherlink.com 1.10,2013-02-10 15:14:00,
2013-02-10 10:29:00,53.0,30.0,30.23,SE,134,4.0,9.0,42,0.00,,,0.00,weatherlink.com 1.10,2013-02-10 15:29:00,
2013-02-10 10:44:00,54.2,31.0,30.22,SSE,154,0.0,4.0,41,0.00,,,0.00,weatherlink.com 1.10,2013-02-10 15:44:00,
2013-02-10 10:59:00,54.1,31.0,30.23,SW,219,0.0,7.0,41,0.00,,,0.00,weatherlink.com 1.10,2013-02-10 15:59:00,
2013-02-10 11:14:00,54.5,30.0,30.21,South,183,0.0,6.0,40,0.00,,,0.00,weatherlink.com 1.10,2013-02-10 16:14:00,
2013-02-10 11:29:00,54.8,29.0,30.20,SSE,150,2.0,7.0,37,0.00,,,0.00,weatherlink.com 1.10,2013-02-10 16:29:00,
2013-02-10 11:44:00,54.8,28.0,30.19,South,184,0.0,7.0,36,0.00,,,0.00,weatherlink.com 1.10,2013-02-10 16:44:00,
2013-02-10 11:59:00,54.9,26.0,30.18,SSW,211,6.0,9.0,33,0.00,,,0.00,weatherlink.com 1.10,2013-02-10 16:59:00,
2013-02-10 12:14:00,55.4,26.0,30.17,East,99,3.0,18.0,32,0.00,,,0.00,weatherlink.com 1.10,2013-02-10 17:14:00,
2013-02-10 12:29:00,55.7,27.0,30.15,SE,124,4.0,11.0,33,0.00,,,0.00,weatherlink.com 1.10,2013-02-10 17:29:00,
2013-02-10 12:44:00,55.7,28.0,30.14,SE,139,4.0,11.0,34,0.00,,,0.00,weatherlink.com 1.10,2013-02-10 17:44:00,
2013-02-10 12:59:00,55.6,28.0,30.14,ESE,105,1.0,6.0,35,0.00,,,0.00,weatherlink.com 1.10,2013-02-10 17:59:00,
2013-02-10 13:14:00,55.7,30.0,30.13,SE,141,2.0,11.0,37,0.00,,,0.00,weatherlink.com 1.10,2013-02-10 18:14:00,
2013-02-10 13:29:00,55.6,31.0,30.13,South,177,2.0,10.0,40,0.00,,,0.00,weatherlink.com 1.10,2013-02-10 18:29:00,
2013-02-10 13:44:00,55.2,33.0,30.12,SSE,153,0.0,7.0,43,0.00,,,0.00,weatherlink.com 1.10,2013-02-10 18:44:00,
2013-02-10 13:59:00,53.0,41.0,30.12,South,169,0.0,3.0,64,0.01,,,0.01,weatherlink.com 1.10,2013-02-10 18:59:00,
2013-02-10 14:14:00,50.1,42.0,30.10,SSE,158,0.0,3.0,75,0.03,,,0.03,weatherlink.com 1.10,2013-02-10 19:14:00,
2013-02-10 14:29:00,49.0,43.0,30.09,SSE,158,0.0,0.0,81,0.05,,,0.05,weatherlink.com 1.10,2013-02-10 19:29:00,
2013-02-10 14:45:00,48.1,44.0,30.08,SSW,196,0.0,0.0,86,0.07,,,0.07,weatherlink.com 1.10,2013-02-10 19:45:00,
2013-02-10 15:00:00,48.1,45.0,30.07,SSW,195,0.0,0.0,88,0.06,,,0.07,weatherlink.com 1.10,2013-02-10 20:00:00,
2013-02-10 15:16:00,47.8,45.0,30.08,SSW,207,0.0,1.0,89,0.07,,,0.10,weatherlink.com 1.10,2013-02-10 20:16:00,
2013-02-10 15:30:00,47.3,45.0,30.08,West,269,0.0,0.0,90,0.11,,,0.16,weatherlink.com 1.10,2013-02-10 20:30:00,
2013-02-10 15:45:00,47.0,45.0,30.07,NW,305,1.0,2.0,92,0.12,,,0.19,weatherlink.com 1.10,2013-02-10 20:45:00,
2013-02-10 16:00:00,46.9,45.0,30.07,WNW,293,0.0,1.0,93,0.15,,,0.22,weatherlink.com 1.10,2013-02-10 21:00:00,
2013-02-10 16:15:00,47.0,45.0,30.08,WNW,282,0.0,1.0,93,0.20,,,0.30,weatherlink.com 1.10,2013-02-10 21:15:00,
2013-02-10 16:30:00,46.9,45.0,30.07,WSW,250,0.0,2.0,94,0.27,,,0.43,weatherlink.com 1.10,2013-02-10 21:30:00,
2013-02-10 16:45:00,46.9,46.0,30.06,SW,215,0.0,1.0,95,0.32,,,0.51,weatherlink.com 1.10,2013-02-10 21:45:00,
2013-02-10 17:00:00,47.1,46.0,30.08,WNW,283,0.0,2.0,95,0.36,,,0.58,weatherlink.com 1.10,2013-02-10 22:00:00,
2013-02-10 17:15:00,47.4,46.0,30.07,West,278,0.0,3.0,95,0.36,,,0.66,weatherlink.com 1.10,2013-02-10 22:15:00,
2013-02-10 17:30:00,47.9,47.0,30.09,NNW,335,0.0,7.0,95,0.23,,,0.66,weatherlink.com 1.10,2013-02-10 22:30:00,
2013-02-10 17:45:00,48.1,47.0,30.11,ESE,109,0.0,2.0,95,0.18,,,0.69,weatherlink.com 1.10,2013-02-10 22:45:00,
2013-02-10 18:00:00,48.2,47.0,30.07,South,182,2.0,5.0,95,0.14,,,0.73,weatherlink.com 1.10,2013-02-10 23:00:00,
2013-02-10 18:15:00,48.6,47.0,30.09,West,264,0.0,6.0,95,0.08,,,0.74,weatherlink.com 1.10,2013-02-10 23:15:00,
2013-02-10 18:30:00,49.0,48.0,30.10,SW,231,0.0,7.0,95,0.09,,,0.75,weatherlink.com 1.10,2013-02-10 23:30:00,
2013-02-10 18:45:00,49.3,48.0,30.07,SE,136,3.0,8.0,95,0.08,,,0.77,weatherlink.com 1.10,2013-02-10 23:45:00,
2013-02-10 19:00:00,49.5,48.0,30.05,SE,126,2.0,10.0,95,0.05,,,0.78,weatherlink.com 1.10,2013-02-11 00:00:00,
2013-02-10 19:15:00,49.5,48.0,30.07,SSE,151,1.0,6.0,95,0.05,,,0.79,weatherlink.com 1.10,2013-02-11 00:15:00,
2013-02-10 19:30:00,49.9,48.0,30.04,South,179,0.0,8.0,94,0.04,,,0.79,weatherlink.com 1.10,2013-02-11 00:30:00,
2013-02-10 19:47:00,50.0,48.0,30.04,SSE,150,1.0,5.0,94,0.02,,,0.79,weatherlink.com 1.10,2013-02-11 00:47:00,
2013-02-10 20:00:00,50.1,49.0,30.04,ESE,108,0.0,7.0,94,0.01,,,0.79,weatherlink.com 1.10,2013-02-11 01:00:00,
2013-02-10 20:15:00,50.2,49.0,30.06,SE,143,0.0,2.0,95,0.01,,,0.80,weatherlink.com 1.10,2013-02-11 01:15:00,
2013-02-10 20:30:00,50.4,49.0,30.05,ESE,104,2.0,3.0,95,0.01,,,0.80,weatherlink.com 1.10,2013-02-11 01:30:00,
2013-02-10 20:45:00,50.6,49.0,30.05,SE,146,0.0,3.0,94,0.01,,,0.80,weatherlink.com 1.10,2013-02-11 01:45:00,
2013-02-10 21:00:00,50.7,49.0,30.05,SSW,193,1.0,3.0,94,0.01,,,0.80,weatherlink.com 1.10,2013-02-11 02:00:00,
2013-02-10 21:15:00,50.8,49.0,30.04,SSE,167,0.0,2.0,94,0.00,,,0.80,weatherlink.com 1.10,2013-02-11 02:15:00,
2013-02-10 21:30:00,50.7,49.0,30.04,ESE,102,0.0,1.0,95,0.00,,,0.80,weatherlink.com 1.10,2013-02-11 02:30:00,
2013-02-10 21:45:00,50.6,49.0,30.02,West,259,0.0,2.0,95,0.00,,,0.80,weatherlink.com 1.10,2013-02-11 02:45:00,
2013-02-10 22:00:00,50.8,50.0,30.03,SE,146,0.0,2.0,95,0.00,,,0.80,weatherlink.com 1.10,2013-02-11 03:00:00,
2013-02-10 22:15:00,50.9,50.0,30.02,NW,314,0.0,3.0,95,0.00,,,0.80,weatherlink.com 1.10,2013-02-11 03:15:00,
2013-02-10 22:30:00,51.0,49.0,30.02,WNW,289,0.0,3.0,94,0.00,,,0.80,weatherlink.com 1.10,2013-02-11 03:30:00,
2013-02-10 22:45:00,51.0,50.0,30.02,West,271,0.0,2.0,95,0.00,,,0.80,weatherlink.com 1.10,2013-02-11 03:45:00,
2013-02-10 23:00:00,51.3,50.0,30.02,West,271,0.0,1.0,95,0.00,,,0.80,weatherlink.com 1.10,2013-02-11 04:00:00,
2013-02-10 23:15:00,51.5,50.0,30.02,NW,314,2.0,2.0,94,0.00,,,0.80,weatherlink.com 1.10,2013-02-11 04:15:00,
2013-02-10 23:32:00,51.7,50.0,30.02,SE,139,1.0,2.0,94,0.00,,,0.80,weatherlink.com 1.10,2013-02-11 04:32:00,
2013-02-10 23:45:00,51.8,50.0,30.02,WSW,245,0.0,4.0,94,0.00,,,0.80,weatherlink.com 1.10,2013-02-11 04:45:00,